TimeEST,TemperatureF,Dew PointF,Humidity,Sea Level PressureIn,VisibilityMPH,Wind Direction,Wind SpeedMPH,Gust SpeedMPH,PrecipitationIn,Events,Conditions,WindDirDegrees,DateUTC
12:53 AM,17.1,12.0,81,30.02,5.0,WNW,12.7,19.6,0.00,Snow,Light Snow,300,2013-02-20 05:53:00
1:53 AM,17.1,9.0,71,30.04,10.0,WNW,16.1,-,0.00,,Overcast,300,2013-02-20 06:53:00
2:53 AM,16.0,10.0,77,30.06,5.0,WNW,12.7,-,0.00,Snow,Light Snow,290,2013-02-20 07:53:00
3:53 AM,16.0,10.9,81,30.08,10.0,West,11.5,-,0.00,,Overcast,280,2013-02-20 08:53:00
4:53 AM,17.1,10.9,77,30.10,10.0,WNW,13.8,-,N/A,,Overcast,290,2013-02-20 09:53:00
5:53 AM,17.1,9.0,71,30.12,9.0,WNW,17.3,24.2,0.00,Snow,Light Snow,300,2013-02-20 10:53:00
6:53 AM,18.0,8.1,65,30.14,9.0,WNW,15.0,-,0.00,Snow,Light Snow,300,2013-02-20 11:53:00
7:53 AM,17.6,8.6,68,30.12,10.0,WNW,18.4,24.2,N/A,,Overcast,300,2013-02-20 12:53:00
8:53 AM,18.0,9.0,68,30.17,10.0,NW,17.3,25.3,0.00,Snow,Light Snow,310,2013-02-20 13:53:00
9:18 AM,17.6,8.6,68,30.14,7.0,NW,18.4,26.5,0.00,Snow,Light Snow,310,2013-02-20 14:18:00
9:53 AM,18.0,9.0,68,30.19,9.0,NW,19.6,28.8,0.00,Snow,Light Snow,310,2013-02-20 14:53:00
10:53 AM,19.4,10.4,68,30.16,9.0,NW,17.3,26.5,N/A,Snow,Light Snow,310,2013-02-20 15:53:00
11:53 AM,19.9,10.0,65,30.21,9.0,NW,19.6,29.9,0.00,Snow,Light Snow,310,2013-02-20 16:53:00
12:53 PM,21.0,10.0,63,30.22,9.0,NW,18.4,26.5,0.00,Snow,Light Snow,320,2013-02-20 17:53:00
1:06 PM,21.2,10.4,63,30.18,9.0,NW,13.8,24.2,0.00,Snow,Light Snow,310,2013-02-20 18:06:00
1:53 PM,21.9,10.9,63,30.22,9.0,NW,10.4,21.9,0.00,Snow,Light Snow,320,2013-02-20 18:53:00
2:53 PM,21.9,12.0,66,30.22,9.0,NW,13.8,23.0,0.00,Snow,Light Snow,320,2013-02-20 19:53:00
3:53 PM,23.0,12.0,63,30.26,9.0,NW,12.7,-,0.00,Snow,Light Snow,310,2013-02-20 20:53:00
4:53 PM,23.0,14.0,68,30.28,4.0,WNW,16.1,21.9,0.00,Snow,Light Snow,300,2013-02-20 21:53:00
5:53 PM,21.9,15.1,75,30.29,3.0,WNW,16.1,20.7,0.00,Snow,Light Snow,300,2013-02-20 22:53:00
6:35 PM,21.2,15.8,80,30.25,9.0,NW,16.1,21.9,0.00,Snow,Light Snow,310,2013-02-20 23:35:00
6:53 PM,21.9,15.1,75,30.30,9.0,NW,13.8,21.9,0.00,Snow,Light Snow,310,2013-02-20 23:53:00
7:53 PM,21.9,16.0,78,30.30,8.0,NW,17.3,21.9,0.00,Snow,Light Snow,320,2013-02-21 00:53:00
8:53 PM,21.9,16.0,78,30.30,8.0,NW,10.4,19.6,0.00,Snow,Light Snow,310,2013-02-21 01:53:00
9:53 PM,21.9,14.0,72,30.31,9.0,NNW,13.8,21.9,0.00,Snow,Light Snow,330,2013-02-21 02:53:00
10:53 PM,21.2,15.8,80,30.27,8.0,NNW,12.7,18.4,N/A,Snow,Light Snow,340,2013-02-21 03:53:00
11:53 PM,21.9,14.0,72,30.32,9.0,North,12.7,16.1,0.00,Snow,Light Snow,350,2013-02-21 04:53:00